TimeCDT,TemperatureF,Dew PointF,Humidity,Sea Level PressureIn,VisibilityMPH,Wind Direction,Wind SpeedMPH,Gust SpeedMPH,PrecipitationIn,Events,Conditions,WindDirDegrees,DateUTC
12:15 AM,68.7,60.1,74,29.67,10.0,ESE,9.2,-,N/A,,Clear,110,2013-05-20 05:15:00
12:35 AM,68.2,59.9,75,29.66,10.0,ESE,8.1,-,N/A,,Clear,120,2013-05-20 05:35:00
12:55 AM,68.0,59.7,75,29.68,10.0,SSE,6.9,-,N/A,,Clear,160,2013-05-20 05:55:00
1:15 AM,67.5,59.4,75,29.70,10.0,SE,5.8,-,N/A,,Clear,140,2013-05-20 06:15:00
1:35 AM,67.6,59.2,74,29.70,10.0,ESE,5.8,-,N/A,,Clear,120,2013-05-20 06:35:00
1:55 AM,67.1,59.0,75,29.73,10.0,SE,5.8,-,N/A,,Scattered Clouds,130,2013-05-20 06:55:00
2:15 AM,66.6,59.7,79,29.79,7.0,SSW,18.4,38.0,0.02,Rain,Heavy Rain,200,2013-05-20 07:15:00
2:35 AM,62.8,60.3,91,29.79,5.0,SW,10.4,20.7,0.09,Rain,Heavy Rain,230,2013-05-20 07:35:00
3:15 AM,61.0,60.1,97,29.68,7.0,ENE,13.8,-,0.04,Rain,Rain,60,2013-05-20 08:15:00
3:35 AM,61.0,59.9,96,29.67,10.0,East,9.2,-,0.06,Rain,Light Rain,80,2013-05-20 08:35:00
3:55 AM,61.0,59.5,95,29.64,10.0,ENE,5.8,-,0.06,,Scattered Clouds,70,2013-05-20 08:55:00
4:35 AM,60.1,59.0,96,29.62,10.0,SE,5.8,-,N/A,,Clear,130,2013-05-20 09:35:00
4:55 AM,60.3,58.3,93,29.63,10.0,SE,6.9,-,N/A,,Clear,140,2013-05-20 09:55:00
5:15 AM,60.8,57.9,90,29.63,10.0,SE,8.1,-,N/A,,Clear,130,2013-05-20 10:15:00
5:35 AM,60.3,58.1,93,29.63,10.0,SE,10.4,16.1,N/A,,Clear,140,2013-05-20 10:35:00
5:55 AM,59.9,57.9,93,29.65,10.0,SE,9.2,-,N/A,,Clear,130,2013-05-20 10:55:00
6:15 AM,59.5,58.3,96,29.67,10.0,SE,9.2,-,N/A,,Mostly Cloudy,140,2013-05-20 11:15:00
6:35 AM,60.4,58.6,94,29.68,10.0,SE,8.1,-,N/A,,Mostly Cloudy,130,2013-05-20 11:35:00
7:15 AM,61.2,58.8,92,29.70,10.0,SE,9.2,-,N/A,,Scattered Clouds,140,2013-05-20 12:15:00
7:35 AM,62.6,59.2,89,29.71,10.0,SSE,9.2,-,N/A,,Clear,150,2013-05-20 12:35:00
7:55 AM,63.5,59.2,86,29.71,10.0,SSE,9.2,16.1,N/A,,Scattered Clouds,160,2013-05-20 12:55:00
8:15 AM,64.0,58.6,83,29.71,10.0,SSE,8.1,-,N/A,,Mostly Cloudy,160,2013-05-20 13:15:00
8:35 AM,63.9,58.5,83,29.71,10.0,SSE,6.9,-,N/A,,Overcast,160,2013-05-20 13:35:00
9:15 AM,63.5,58.5,84,29.70,10.0,SSE,5.8,-,N/A,,Overcast,150,2013-05-20 14:15:00
9:35 AM,64.0,58.5,82,29.69,10.0,SSE,6.9,-,N/A,,Overcast,160,2013-05-20 14:35:00
9:55 AM,65.3,58.5,78,29.69,10.0,South,10.4,-,N/A,,Scattered Clouds,170,2013-05-20 14:55:00
10:35 AM,67.8,57.7,70,29.71,10.0,SSW,13.8,18.4,N/A,,Mostly Cloudy,200,2013-05-20 15:35:00
10:55 AM,69.3,58.5,68,29.71,10.0,South,13.8,19.6,N/A,,Mostly Cloudy,170,2013-05-20 15:55:00
11:15 AM,69.8,57.9,66,29.71,10.0,SSW,9.2,-,N/A,,Mostly Cloudy,200,2013-05-20 16:15:00
11:35 AM,71.2,57.9,63,29.71,10.0,South,10.4,19.6,N/A,,Mostly Cloudy,190,2013-05-20 16:35:00
11:55 AM,70.7,57.4,63,29.70,10.0,South,5.8,-,N/A,,Mostly Cloudy,170,2013-05-20 16:55:00
12:15 PM,72.3,57.2,59,29.70,10.0,South,8.1,16.1,N/A,,Scattered Clouds,190,2013-05-20 17:15:00
12:35 PM,73.6,56.8,56,29.69,10.0,SW,10.4,-,N/A,,Clear,220,2013-05-20 17:35:00
12:55 PM,74.7,57.6,55,29.69,10.0,South,9.2,16.1,N/A,,Scattered Clouds,170,2013-05-20 17:55:00
1:15 PM,75.4,56.5,52,29.68,10.0,South,12.7,17.3,N/A,,Scattered Clouds,190,2013-05-20 18:15:00
1:55 PM,76.8,57.0,50,29.67,10.0,SSE,12.7,19.6,N/A,,Clear,160,2013-05-20 18:55:00
2:15 PM,77.4,56.5,48,29.67,10.0,South,9.2,19.6,N/A,,Scattered Clouds,190,2013-05-20 19:15:00
2:35 PM,78.6,55.6,45,29.66,10.0,SSW,13.8,23.0,N/A,,Scattered Clouds,200,2013-05-20 19:35:00
2:59 PM,78.8,53.6,42,29.66,10.0,SSW,17.3,28.8,N/A,,Scattered Clouds,200,2013-05-20 19:59:00
3:15 PM,79.7,53.8,41,29.66,10.0,South,20.7,24.2,N/A,,Scattered Clouds,170,2013-05-20 20:15:00
3:35 PM,79.9,53.4,40,29.65,10.0,SSW,21.9,29.9,N/A,,Scattered Clouds,200,2013-05-20 20:35:00
3:55 PM,79.9,53.6,40,29.65,10.0,SSW,19.6,29.9,N/A,,Scattered Clouds,200,2013-05-20 20:55:00
4:15 PM,78.4,54.1,43,29.66,10.0,SSW,13.8,21.9,N/A,,Mostly Cloudy,210,2013-05-20 21:15:00
4:35 PM,79.2,53.8,41,29.66,10.0,SSW,19.6,31.1,N/A,,Scattered Clouds,210,2013-05-20 21:35:00
4:55 PM,78.8,54.5,43,29.65,10.0,SSW,18.4,27.6,N/A,,Scattered Clouds,200,2013-05-20 21:55:00
5:15 PM,77.7,54.9,45,29.65,10.0,SSW,17.3,21.9,N/A,,Mostly Cloudy,200,2013-05-20 22:15:00
5:35 PM,78.1,54.7,44,29.65,10.0,SSW,11.5,23.0,N/A,,Mostly Cloudy,210,2013-05-20 22:35:00
5:55 PM,77.2,54.0,44,29.65,10.0,SW,18.4,31.1,N/A,,Mostly Cloudy,220,2013-05-20 22:55:00
6:15 PM,78.1,55.0,45,29.65,10.0,SSW,19.6,23.0,N/A,,Mostly Cloudy,210,2013-05-20 23:15:00
6:35 PM,77.9,54.9,45,29.65,10.0,SW,19.6,26.5,N/A,,Scattered Clouds,220,2013-05-20 23:35:00
6:55 PM,76.5,54.0,46,29.66,10.0,SW,16.1,21.9,N/A,,Clear,220,2013-05-20 23:55:00
7:15 PM,76.1,54.7,47,29.66,10.0,SW,11.5,23.0,N/A,,Clear,220,2013-05-21 00:15:00
7:35 PM,75.2,55.0,49,29.66,10.0,SW,9.2,-,N/A,,Clear,220,2013-05-21 00:35:00
7:55 PM,73.8,55.2,52,29.66,10.0,SSW,6.9,-,N/A,,Clear,210,2013-05-21 00:55:00
8:15 PM,72.0,55.4,56,29.66,10.0,SSW,6.9,-,N/A,,Clear,210,2013-05-21 01:15:00
8:35 PM,70.9,54.7,56,29.67,10.0,SSW,5.8,-,N/A,,Clear,210,2013-05-21 01:35:00
8:55 PM,70.0,54.7,58,29.68,10.0,Calm,Calm,-,N/A,,Clear,0,2013-05-21 01:55:00
9:15 PM,66.4,55.2,67,29.67,10.0,Calm,Calm,-,N/A,,Clear,0,2013-05-21 02:15:00
9:35 PM,64.8,55.4,72,29.68,10.0,Calm,Calm,-,N/A,,Scattered Clouds,0,2013-05-21 02:35:00
10:15 PM,61.9,56.3,82,29.68,10.0,SE,3.5,-,N/A,,Mostly Cloudy,130,2013-05-21 03:15:00
10:35 PM,63.0,56.7,80,29.68,10.0,Calm,Calm,-,N/A,,Scattered Clouds,0,2013-05-21 03:35:00
10:55 PM,62.4,56.5,81,29.66,10.0,Calm,Calm,-,N/A,,Mostly Cloudy,0,2013-05-21 03:55:00
11:15 PM,63.9,57.0,78,29.66,10.0,Calm,Calm,-,N/A,,Mostly Cloudy,0,2013-05-21 04:15:00
11:35 PM,63.0,57.4,82,29.65,10.0,NNE,4.6,-,N/A,,Scattered Clouds,30,2013-05-21 04:35:00
11:55 PM,60.8,56.7,86,29.65,10.0,East,3.5,-,N/A,,Clear,80,2013-05-21 04:55:00